| time (UTC) | temp F | wind direction | speed MPH | gust MPH | rain 1hr in | rain 24hr in | rain mn in | humidity % | barometer mb |
| 20260507142312 | 64 | 151 | 1.0 | 1.0 | 0.00 | 0.00 | 0.00 | 36 | 1014.2 |
| 20260507141809 | 63 | 150 | 3.0 | 3.0 | 0.00 | 0.00 | 0.00 | 35 | 1014.4 |
| 20260507141305 | 63 | 115 | 2.0 | 2.0 | 0.00 | 0.00 | 0.00 | 35 | 1014.1 |
| 20260507140801 | 62 | 128 | 3.0 | 3.0 | 0.00 | 0.00 | 0.00 | 36 | 1014.2 |
| 20260507140259 | 63 | 147 | 3.0 | 3.0 | 0.00 | 0.00 | 0.00 | 35 | 1014.3 |
| 20260507135756 | 62 | 122 | 3.0 | 3.0 | 0.00 | 0.00 | 0.00 | 36 | 1014.3 |
| 20260507135253 | 61 | 124 | 4.0 | 5.0 | 0.00 | 0.00 | 0.00 | 36 | 1014.3 |
| 20260507134750 | 61 | 115 | 2.0 | 2.0 | 0.00 | 0.00 | 0.00 | 38 | 1014.2 |
| 20260507134246 | 61 | 105 | 2.0 | 2.0 | 0.00 | 0.00 | 0.00 | 37 | 1014.2 |
| 20260507133742 | 60 | 159 | 1.0 | 1.0 | 0.00 | 0.00 | 0.00 | 38 | 1014.2 |
| 20260507133239 | 60 | 150 | 1.0 | 1.0 | 0.00 | 0.00 | 0.00 | 39 | 1014.1 |
| 20260507132736 | 60 | 146 | 1.0 | 1.0 | 0.00 | 0.00 | 0.00 | 39 | 1014.2 |
| 20260507132233 | 59 | 140 | 1.0 | 2.0 | 0.00 | 0.00 | 0.00 | 41 | 1014.1 |
| 20260507131730 | 58 | 176 | 1.0 | 2.0 | 0.00 | 0.00 | 0.00 | 43 | 1013.9 |
| 20260507131227 | 58 | 117 | 1.0 | 1.0 | 0.00 | 0.00 | 0.00 | 44 | 1014.1 |
| 20260507130724 | 57 | 145 | 2.0 | 2.0 | 0.00 | 0.00 | 0.00 | 44 | 1013.9 |
| 20260507130221 | 57 | 161 | 0.0 | 0.0 | 0.00 | 0.00 | 0.00 | 46 | 1013.8 |
| 20260507125720 | 55 | 166 | 0.0 | 0.0 | 0.00 | 0.00 | 0.00 | 47 | 1013.8 |
| 20260507125217 | 55 | 161 | 1.0 | 1.0 | 0.00 | 0.00 | 0.00 | 49 | 1013.9 |
| 20260507124714 | 55 | 164 | 1.0 | 1.0 | 0.00 | 0.00 | 0.00 | 49 | 1013.6 |
| 20260507124211 | 55 | 138 | 2.0 | 2.0 | 0.00 | 0.00 | 0.00 | 50 | 1013.7 |
| 20260507123709 | 55 | 167 | 1.0 | 1.0 | 0.00 | 0.00 | 0.00 | 51 | 1013.8 |
| 20260507123206 | 54 | 164 | 0.0 | 0.0 | 0.00 | 0.00 | 0.00 | 52 | 1013.7 |
| 20260507122701 | 55 | 151 | 1.0 | 1.0 | 0.00 | 0.00 | 0.00 | 51 | 1013.8 |
| 20260507122157 | 55 | 163 | 0.0 | 0.0 | 0.00 | 0.00 | 0.00 | 51 | 1013.6 |
| 20260507121653 | 55 | 180 | 0.0 | 0.0 | 0.00 | 0.00 | 0.00 | 52 | 1014.0 |
| 20260507121149 | 55 | 159 | 0.0 | 0.0 | 0.00 | 0.00 | 0.00 | 52 | 1013.8 |
| 20260507120645 | 55 | 161 | 0.0 | 0.0 | 0.00 | 0.00 | 0.00 | 52 | 1013.8 |
| 20260507120142 | 55 | 150 | 1.0 | 1.0 | 0.00 | 0.00 | 0.00 | 50 | 1013.7 |
| 20260507115639 | 55 | 160 | 1.0 | 1.0 | 0.00 | 0.00 | 0.00 | 51 | 1013.8 |
| 20260507115134 | 55 | 151 | 0.0 | 1.0 | 0.00 | 0.00 | 0.00 | 53 | 1013.8 |
| 20260507114630 | 55 | 156 | 0.0 | 0.0 | 0.00 | 0.00 | 0.00 | 54 | 1013.8 |
| 20260507114128 | 55 | 156 | 0.0 | 0.0 | 0.00 | 0.00 | 0.00 | 52 | 1013.7 |
| 20260507113625 | 55 | 156 | 0.0 | 1.0 | 0.00 | 0.00 | 0.00 | 52 | 1013.7 |
| 20260507113122 | 55 | 146 | 1.0 | 1.0 | 0.00 | 0.00 | 0.00 | 51 | 1014.0 |
| 20260507112620 | 56 | 194 | 1.0 | 1.0 | 0.00 | 0.00 | 0.00 | 50 | 1013.9 |
| 20260507112116 | 57 | 138 | 1.0 | 1.0 | 0.00 | 0.00 | 0.00 | 48 | 1013.7 |
| 20260507111614 | 57 | 144 | 1.0 | 1.0 | 0.00 | 0.00 | 0.00 | 47 | 1013.8 |
| 20260507111110 | 56 | 176 | 1.0 | 1.0 | 0.00 | 0.00 | 0.00 | 50 | 1013.7 |
| 20260507110607 | 57 | 152 | 0.0 | 1.0 | 0.00 | 0.00 | 0.00 | 48 | 1013.7 |
| 20260507110103 | 57 | 169 | 0.0 | 1.0 | 0.00 | 0.00 | 0.00 | 46 | 1013.8 |
| 20260507105600 | 57 | 211 | 1.0 | 1.0 | 0.00 | 0.00 | 0.00 | 48 | 1013.6 |
| 20260507105056 | 58 | 182 | 0.0 | 0.0 | 0.00 | 0.00 | 0.00 | 46 | 1013.6 |
| 20260507104554 | 58 | 170 | 1.0 | 1.0 | 0.00 | 0.00 | 0.00 | 47 | 1013.4 |
| 20260507104050 | 58 | 189 | 1.0 | 1.0 | 0.00 | 0.00 | 0.00 | 46 | 1013.4 |
| 20260507103546 | 58 | 162 | 0.0 | 0.0 | 0.00 | 0.00 | 0.00 | 46 | 1013.7 |
| 20260507103043 | 57 | 215 | 0.0 | 0.0 | 0.00 | 0.00 | 0.00 | 46 | 1013.6 |
| 20260507102539 | 58 | 158 | 0.0 | 0.0 | 0.00 | 0.00 | 0.00 | 46 | 1013.3 |
| 20260507102036 | 58 | 150 | 2.0 | 2.0 | 0.00 | 0.00 | 0.00 | 46 | 1013.7 |
| 20260507101531 | 58 | 155 | 2.0 | 2.0 | 0.00 | 0.00 | 0.00 | 46 | 1013.7 |
| 20260507101027 | 58 | 156 | 1.0 | 1.0 | 0.00 | 0.00 | 0.00 | 47 | 1013.7 |
| 20260507100525 | 58 | 150 | 1.0 | 1.0 | 0.00 | 0.00 | 0.00 | 47 | 1013.4 |
| 20260507100023 | 58 | 159 | 0.0 | 0.0 | 0.00 | 0.00 | 0.00 | 47 | 1013.3 |
| 20260507095521 | 59 | 159 | 0.0 | 1.0 | 0.00 | 0.00 | 0.00 | 45 | 1013.6 |
| 20260507095017 | 58 | 154 | 1.0 | 1.0 | 0.00 | 0.00 | 0.00 | 45 | 1013.7 |
| 20260507094513 | 58 | 153 | 0.0 | 0.0 | 0.00 | 0.00 | 0.00 | 46 | 1013.7 |
| 20260507094010 | 59 | 152 | 0.0 | 0.0 | 0.00 | 0.00 | 0.00 | 45 | 1013.9 |
| 20260507093508 | 59 | 152 | 0.0 | 0.0 | 0.00 | 0.00 | 0.00 | 45 | 1013.6 |
| 20260507093007 | 59 | 129 | 1.0 | 1.0 | 0.00 | 0.00 | 0.00 | 44 | 1013.7 |
| 20260507092502 | 59 | 139 | 0.0 | 0.0 | 0.00 | 0.00 | 0.00 | 46 | 1013.9 |
| 20260507092000 | 59 | 90 | 1.0 | 1.0 | 0.00 | 0.00 | 0.00 | 46 | 1013.7 |
| 20260507091456 | 59 | 204 | 0.0 | 0.0 | 0.00 | 0.00 | 0.00 | 48 | 1014.0 |
| 20260507090952 | 59 | 134 | 0.0 | 0.0 | 0.00 | 0.00 | 0.00 | 47 | 1013.8 |
| 20260507090448 | 59 | 160 | 0.0 | 0.0 | 0.00 | 0.00 | 0.00 | 48 | 1013.7 |
| 20260507085944 | 59 | 165 | 0.0 | 0.0 | 0.00 | 0.00 | 0.00 | 48 | 1013.8 |
| 20260507085442 | 59 | 165 | 0.0 | 0.0 | 0.00 | 0.00 | 0.00 | 48 | 1014.1 |
| 20260507084938 | 60 | 172 | 0.0 | 0.0 | 0.00 | 0.00 | 0.00 | 46 | 1013.7 |
| 20260507084435 | 60 | 141 | 0.0 | 0.0 | 0.00 | 0.00 | 0.00 | 46 | 1013.9 |
| 20260507083932 | 60 | 156 | 0.0 | 0.0 | 0.00 | 0.00 | 0.00 | 46 | 1013.9 |
| 20260507083429 | 60 | 144 | 0.0 | 0.0 | 0.00 | 0.00 | 0.00 | 46 | 1014.1 |
| 20260507082925 | 60 | 162 | 0.0 | 0.0 | 0.00 | 0.00 | 0.00 | 46 | 1013.9 |
| 20260507082421 | 60 | 185 | 0.0 | 0.0 | 0.00 | 0.00 | 0.00 | 46 | 1013.8 |
| 20260507081918 | 60 | 209 | 0.0 | 0.0 | 0.00 | 0.00 | 0.00 | 47 | 1013.9 |
| 20260507081414 | 60 | 152 | 0.0 | 0.0 | 0.00 | 0.00 | 0.00 | 47 | 1013.9 |
| 20260507080911 | 60 | 77 | 0.0 | 0.0 | 0.00 | 0.00 | 0.00 | 47 | 1014.0 |
| 20260507080408 | 60 | 165 | 0.0 | 0.0 | 0.00 | 0.00 | 0.00 | 47 | 1013.9 |
| 20260507075903 | 60 | 159 | 0.0 | 0.0 | 0.00 | 0.00 | 0.00 | 47 | 1014.0 |
| 20260507075359 | 61 | 118 | 0.0 | 0.0 | 0.00 | 0.00 | 0.00 | 45 | 1014.0 |
| 20260507074856 | 63 | 201 | 0.0 | 0.0 | 0.00 | 0.00 | 0.00 | 40 | 1013.9 |
| 20260507074353 | 64 | 170 | 0.0 | 0.0 | 0.00 | 0.00 | 0.00 | 34 | 1013.9 |
| 20260507073850 | 64 | 192 | 0.0 | 0.0 | 0.00 | 0.00 | 0.00 | 32 | 1013.9 |
| 20260507073346 | 64 | 194 | 0.0 | 0.0 | 0.00 | 0.00 | 0.00 | 33 | 1013.6 |
| 20260507072844 | 64 | 165 | 0.0 | 0.0 | 0.00 | 0.00 | 0.00 | 32 | 1013.6 |
| 20260507072341 | 64 | 159 | 1.0 | 1.0 | 0.00 | 0.00 | 0.00 | 32 | 1013.8 |
| 20260507071839 | 65 | 175 | 0.0 | 0.0 | 0.00 | 0.00 | 0.00 | 31 | 1013.7 |
| 20260507071336 | 66 | 168 | 0.0 | 0.0 | 0.00 | 0.00 | 0.00 | 31 | 1014.0 |
| 20260507070832 | 67 | 242 | 2.0 | 2.0 | 0.00 | 0.00 | 0.00 | 29 | 1013.8 |
| 20260507070329 | 67 | 233 | 3.0 | 3.0 | 0.00 | 0.00 | 0.00 | 29 | 1013.8 |
| 20260507065826 | 67 | 218 | 2.0 | 2.0 | 0.00 | 0.00 | 0.00 | 29 | 1013.8 |
| 20260507065322 | 67 | 183 | 1.0 | 2.0 | 0.00 | 0.00 | 0.00 | 29 | 1014.1 |
| 20260507064820 | 67 | 201 | 2.0 | 2.0 | 0.00 | 0.00 | 0.00 | 29 | 1013.9 |
| 20260507064318 | 67 | 241 | 2.0 | 2.0 | 0.00 | 0.00 | 0.00 | 29 | 1013.7 |
| 20260507063816 | 67 | 235 | 3.0 | 3.0 | 0.00 | 0.00 | 0.00 | 29 | 1013.7 |
| 20260507063312 | 67 | 209 | 1.0 | 1.0 | 0.00 | 0.00 | 0.00 | 29 | 1013.7 |
| 20260507062809 | 67 | 221 | 2.0 | 3.0 | 0.00 | 0.00 | 0.00 | 28 | 1013.9 |
| 20260507062306 | 67 | 189 | 0.0 | 0.0 | 0.00 | 0.00 | 0.00 | 29 | 1013.7 |
| 20260507061804 | 68 | 210 | 0.0 | 0.0 | 0.00 | 0.00 | 0.00 | 28 | 1013.9 |
| 20260507061302 | 68 | 198 | 1.0 | 1.0 | 0.00 | 0.00 | 0.00 | 28 | 1013.6 |
| 20260507060800 | 68 | 206 | 2.0 | 2.0 | 0.00 | 0.00 | 0.00 | 27 | 1014.0 |
| 20260507060256 | 68 | 212 | 1.0 | 2.0 | 0.00 | 0.00 | 0.00 | 27 | 1013.6 |
| 20260507055753 | 68 | 265 | 1.0 | 2.0 | 0.00 | 0.00 | 0.00 | 27 | 1013.6 |
| 20260507055248 | 69 | 223 | 3.0 | 3.0 | 0.00 | 0.00 | 0.00 | 27 | 1013.4 |
| 20260507054745 | 69 | 272 | 3.0 | 3.0 | 0.00 | 0.00 | 0.00 | 27 | 1013.7 |
| 20260507054241 | 69 | 223 | 1.0 | 1.0 | 0.00 | 0.00 | 0.00 | 27 | 1013.6 |
| 20260507053739 | 69 | 212 | 1.0 | 1.0 | 0.00 | 0.00 | 0.00 | 27 | 1013.8 |
| 20260507053236 | 69 | 216 | 2.0 | 2.0 | 0.00 | 0.00 | 0.00 | 26 | 1013.6 |
| 20260507052735 | 69 | 229 | 2.0 | 2.0 | 0.00 | 0.00 | 0.00 | 26 | 1013.3 |
| 20260507052231 | 69 | 250 | 2.0 | 2.0 | 0.00 | 0.00 | 0.00 | 26 | 1013.7 |
| 20260507051729 | 69 | 203 | 1.0 | 2.0 | 0.00 | 0.00 | 0.00 | 26 | 1013.4 |
| 20260507051226 | 69 | 262 | 1.0 | 1.0 | 0.00 | 0.00 | 0.00 | 26 | 1013.6 |
| 20260507050722 | 70 | 202 | 1.0 | 2.0 | 0.00 | 0.00 | 0.00 | 25 | 1013.2 |
| 20260507050220 | 70 | 237 | 3.0 | 3.0 | 0.00 | 0.00 | 0.00 | 25 | 1013.4 |
| 20260507045716 | 70 | 266 | 3.0 | 3.0 | 0.00 | 0.00 | 0.00 | 25 | 1013.2 |
| 20260507045212 | 70 | 204 | 1.0 | 2.0 | 0.00 | 0.00 | 0.00 | 25 | 1013.4 |
| 20260507044710 | 71 | 250 | 3.0 | 3.0 | 0.00 | 0.00 | 0.00 | 24 | 1013.4 |
| 20260507044206 | 71 | 269 | 3.0 | 3.0 | 0.00 | 0.00 | 0.00 | 24 | 1013.3 |
| 20260507043702 | 71 | 274 | 2.0 | 2.0 | 0.00 | 0.00 | 0.00 | 24 | 1013.3 |
| 20260507043159 | 71 | 252 | 3.0 | 3.0 | 0.00 | 0.00 | 0.00 | 24 | 1013.4 |
| 20260507042656 | 71 | 221 | 3.0 | 3.0 | 0.00 | 0.00 | 0.00 | 24 | 1013.3 |
| 20260507042150 | 71 | 274 | 5.0 | 6.0 | 0.00 | 0.00 | 0.00 | 24 | 1013.2 |
| 20260507041648 | 71 | 238 | 5.0 | 6.0 | 0.00 | 0.00 | 0.00 | 24 | 1013.1 |
| 20260507041144 | 71 | 226 | 5.0 | 7.0 | 0.00 | 0.00 | 0.00 | 24 | 1013.0 |
| 20260507040642 | 72 | 271 | 6.0 | 7.0 | 0.00 | 0.00 | 0.00 | 24 | 1013.1 |
| 20260507040138 | 72 | 264 | 5.0 | 6.0 | 0.00 | 0.00 | 0.00 | 23 | 1013.0 |
| 20260507035634 | 72 | 252 | 7.0 | 8.0 | 0.00 | 0.00 | 0.00 | 23 | 1013.1 |
| 20260507035130 | 72 | 262 | 7.0 | 8.0 | 0.00 | 0.00 | 0.00 | 23 | 1012.9 |
| 20260507034627 | 72 | 276 | 5.0 | 7.0 | 0.00 | 0.00 | 0.00 | 23 | 1012.9 |
| 20260507034125 | 73 | 249 | 6.0 | 8.0 | 0.00 | 0.00 | 0.00 | 23 | 1012.8 |
| 20260507033623 | 73 | 274 | 6.0 | 7.0 | 0.00 | 0.00 | 0.00 | 23 | 1012.8 |
| 20260507033120 | 73 | 264 | 6.0 | 8.0 | 0.00 | 0.00 | 0.00 | 23 | 1012.9 |
| 20260507032617 | 73 | 283 | 5.0 | 6.0 | 0.00 | 0.00 | 0.00 | 23 | 1012.8 |
| 20260507032113 | 73 | 255 | 4.0 | 6.0 | 0.00 | 0.00 | 0.00 | 23 | 1012.7 |
| 20260507031610 | 73 | 266 | 4.0 | 5.0 | 0.00 | 0.00 | 0.00 | 22 | 1012.6 |
| 20260507031106 | 73 | 265 | 5.0 | 7.0 | 0.00 | 0.00 | 0.00 | 22 | 1012.6 |
| 20260507030603 | 74 | 247 | 5.0 | 5.0 | 0.00 | 0.00 | 0.00 | 22 | 1012.6 |
| 20260507030101 | 74 | 255 | 3.0 | 3.0 | 0.00 | 0.00 | 0.00 | 21 | 1012.4 |
| 20260507025558 | 74 | 283 | 3.0 | 5.0 | 0.00 | 0.00 | 0.00 | 21 | 1012.3 |
| 20260507025055 | 74 | 258 | 5.0 | 6.0 | 0.00 | 0.00 | 0.00 | 21 | 1012.3 |
| 20260507024553 | 74 | 268 | 5.0 | 6.0 | 0.00 | 0.00 | 0.00 | 21 | 1012.2 |
| 20260507024050 | 74 | 260 | 7.0 | 9.0 | 0.00 | 0.00 | 0.00 | 20 | 1012.3 |
| 20260507023545 | 74 | 263 | 4.0 | 6.0 | 0.00 | 0.00 | 0.00 | 21 | 1012.2 |
| 20260507023043 | 75 | 285 | 4.0 | 5.0 | 0.00 | 0.00 | 0.00 | 21 | 1012.2 |
| 20260507022539 | 75 | 259 | 4.0 | 6.0 | 0.00 | 0.00 | 0.00 | 20 | 1012.2 |
| 20260507022035 | 75 | 227 | 3.0 | 3.0 | 0.00 | 0.00 | 0.00 | 21 | 1012.2 |
| 20260507021531 | 75 | 286 | 6.0 | 8.0 | 0.00 | 0.00 | 0.00 | 21 | 1012.2 |
| 20260507021028 | 75 | 291 | 3.0 | 3.0 | 0.00 | 0.00 | 0.00 | 21 | 1012.0 |
| 20260507020525 | 75 | 271 | 6.0 | 7.0 | 0.00 | 0.00 | 0.00 | 21 | 1012.2 |
| 20260507020022 | 76 | 263 | 3.0 | 3.0 | 0.00 | 0.00 | 0.00 | 21 | 1012.2 |
| 20260507015520 | 76 | 270 | 6.0 | 8.0 | 0.00 | 0.00 | 0.00 | 20 | 1011.9 |
| 20260507015017 | 76 | 334 | 8.0 | 10.0 | 0.00 | 0.00 | 0.00 | 20 | 1012.2 |
| 20260507014514 | 77 | 257 | 7.0 | 8.0 | 0.00 | 0.00 | 0.00 | 21 | 1012.0 |
| 20260507014010 | 77 | 287 | 3.0 | 5.0 | 0.00 | 0.00 | 0.00 | 21 | 1012.3 |
| 20260507013506 | 77 | 264 | 3.0 | 6.0 | 0.00 | 0.00 | 0.00 | 21 | 1012.0 |
| 20260507013004 | 77 | 298 | 6.0 | 8.0 | 0.00 | 0.00 | 0.00 | 21 | 1012.3 |
| 20260507012501 | 77 | 252 | 7.0 | 8.0 | 0.00 | 0.00 | 0.00 | 21 | 1011.8 |
| 20260507011957 | 78 | 238 | 5.0 | 6.0 | 0.00 | 0.00 | 0.00 | 21 | 1011.9 |
| 20260507011454 | 78 | 187 | 5.0 | 6.0 | 0.00 | 0.00 | 0.00 | 21 | 1012.2 |
| 20260507010950 | 78 | 253 | 6.0 | 7.0 | 0.00 | 0.00 | 0.00 | 21 | 1011.9 |
| 20260507010444 | 78 | 195 | 3.0 | 5.0 | 0.00 | 0.00 | 0.00 | 21 | 1011.9 |
| 20260507005942 | 78 | 281 | 3.0 | 6.0 | 0.00 | 0.00 | 0.00 | 21 | 1012.3 |
| 20260507005439 | 78 | 273 | 5.0 | 6.0 | 0.00 | 0.00 | 0.00 | 21 | 1012.2 |
| 20260507004935 | 78 | 271 | 7.0 | 9.0 | 0.00 | 0.00 | 0.00 | 21 | 1012.2 |
| 20260507004432 | 78 | 273 | 7.0 | 7.0 | 0.00 | 0.00 | 0.00 | 21 | 1011.9 |
| 20260507003930 | 78 | 245 | 5.0 | 7.0 | 0.00 | 0.00 | 0.00 | 21 | 1012.0 |
| 20260507003424 | 78 | 37 | 6.0 | 9.0 | 0.00 | 0.00 | 0.00 | 21 | 1012.0 |
| 20260507002920 | 78 | 271 | 7.0 | 8.0 | 0.00 | 0.00 | 0.00 | 21 | 1011.9 |
| 20260507002416 | 79 | 297 | 9.0 | 11.0 | 0.00 | 0.00 | 0.00 | 20 | 1011.8 |
| 20260507001914 | 79 | 319 | 9.0 | 10.0 | 0.00 | 0.00 | 0.00 | 21 | 1012.2 |
| 20260507001410 | 78 | 228 | 4.0 | 6.0 | 0.00 | 0.00 | 0.00 | 21 | 1011.8 |
| 20260507000908 | 79 | 351 | 7.0 | 9.0 | 0.00 | 0.00 | 0.00 | 21 | 1011.8 |
| 20260507000405 | 79 | 203 | 3.0 | 3.0 | 0.00 | 0.00 | 0.00 | 21 | 1011.8 |
| 20260506235859 | 78 | 22 | 3.0 | 3.0 | 0.00 | 0.00 | 0.00 | 21 | 1011.9 |
| 20260506235356 | 78 | 188 | 3.0 | 5.0 | 0.00 | 0.00 | 0.00 | 20 | 1012.0 |
| 20260506234852 | 79 | 237 | 1.0 | 1.0 | 0.00 | 0.00 | 0.00 | 21 | 1011.7 |
| 20260506234350 | 78 | 25 | 3.0 | 3.0 | 0.00 | 0.00 | 0.00 | 21 | 1011.8 |
| 20260506233847 | 78 | 106 | 3.0 | 5.0 | 0.00 | 0.00 | 0.00 | 20 | 1011.9 |
| 20260506233343 | 78 | 200 | 3.0 | 3.0 | 0.00 | 0.00 | 0.00 | 20 | 1012.0 |
| 20260506232840 | 79 | 191 | 2.0 | 2.0 | 0.00 | 0.00 | 0.00 | 21 | 1011.9 |
| 20260506232336 | 80 | 292 | 5.0 | 7.0 | 0.00 | 0.00 | 0.00 | 20 | 1011.9 |
| 20260506231833 | 79 | 258 | 8.0 | 9.0 | 0.00 | 0.00 | 0.00 | 21 | 1012.2 |
| 20260506231331 | 79 | 236 | 3.0 | 3.0 | 0.00 | 0.00 | 0.00 | 20 | 1012.3 |
| 20260506230828 | 78 | 289 | 5.0 | 7.0 | 0.00 | 0.00 | 0.00 | 21 | 1012.3 |
| 20260506230324 | 79 | 283 | 2.0 | 3.0 | 0.00 | 0.00 | 0.00 | 21 | 1012.2 |
| 20260506225820 | 78 | 17 | 4.0 | 7.0 | 0.00 | 0.00 | 0.00 | 21 | 1012.3 |
| 20260506225318 | 79 | 262 | 8.0 | 8.0 | 0.00 | 0.00 | 0.00 | 21 | 1012.3 |
| 20260506224815 | 78 | 305 | 8.0 | 9.0 | 0.00 | 0.00 | 0.00 | 21 | 1012.2 |
| 20260506224312 | 78 | 256 | 6.0 | 7.0 | 0.00 | 0.00 | 0.00 | 22 | 1012.4 |
| 20260506223808 | 78 | 187 | 0.0 | 0.0 | 0.00 | 0.00 | 0.00 | 21 | 1012.2 |
| 20260506223303 | 80 | 301 | 4.0 | 5.0 | 0.00 | 0.00 | 0.00 | 21 | 1012.4 |
| 20260506222801 | 78 | 268 | 5.0 | 6.0 | 0.00 | 0.00 | 0.00 | 21 | 1012.6 |
| 20260506222256 | 79 | 270 | 8.0 | 10.0 | 0.00 | 0.00 | 0.00 | 22 | 1012.5 |
| 20260506221754 | 77 | 227 | 2.0 | 2.0 | 0.00 | 0.00 | 0.00 | 23 | 1012.4 |
| 20260506221252 | 78 | 260 | 5.0 | 6.0 | 0.00 | 0.00 | 0.00 | 22 | 1012.5 |
| 20260506220749 | 78 | 250 | 8.0 | 10.0 | 0.00 | 0.00 | 0.00 | 23 | 1012.4 |
| 20260506220244 | 77 | 243 | 4.0 | 5.0 | 0.00 | 0.00 | 0.00 | 23 | 1012.5 |
| 20260506215741 | 78 | 269 | 4.0 | 6.0 | 0.00 | 0.00 | 0.00 | 23 | 1012.8 |
| 20260506215237 | 77 | 249 | 2.0 | 2.0 | 0.00 | 0.00 | 0.00 | 24 | 1012.8 |
| 20260506214733 | 77 | 68 | 5.0 | 7.0 | 0.00 | 0.00 | 0.00 | 24 | 1012.9 |
| 20260506214230 | 77 | 294 | 7.0 | 8.0 | 0.00 | 0.00 | 0.00 | 24 | 1012.8 |
| 20260506213728 | 78 | 230 | 5.0 | 6.0 | 0.00 | 0.00 | 0.00 | 24 | 1013.0 |
| 20260506213225 | 77 | 306 | 3.0 | 3.0 | 0.00 | 0.00 | 0.00 | 24 | 1012.8 |
| 20260506212717 | 78 | 352 | 2.0 | 2.0 | 0.00 | 0.00 | 0.00 | 25 | 1012.9 |
| 20260506212212 | 77 | 191 | 3.0 | 5.0 | 0.00 | 0.00 | 0.00 | 24 | 1013.0 |
| 20260506211708 | 77 | 170 | 2.0 | 3.0 | 0.00 | 0.00 | 0.00 | 24 | 1013.1 |
| 20260506211204 | 75 | 268 | 6.0 | 7.0 | 0.00 | 0.00 | 0.00 | 25 | 1013.3 |
| 20260506210701 | 77 | 284 | 4.0 | 5.0 | 0.00 | 0.00 | 0.00 | 26 | 1013.2 |
| 20260506210158 | 76 | 141 | 1.0 | 2.0 | 0.00 | 0.00 | 0.00 | 26 | 1013.2 |
| 20260506205655 | 75 | 186 | 3.0 | 3.0 | 0.00 | 0.00 | 0.00 | 27 | 1013.2 |
| 20260506205150 | 76 | 283 | 9.0 | 9.0 | 0.00 | 0.00 | 0.00 | 26 | 1013.7 |
| 20260506204648 | 75 | 221 | 1.0 | 2.0 | 0.00 | 0.00 | 0.00 | 27 | 1013.4 |
| 20260506204144 | 76 | 295 | 2.0 | 2.0 | 0.00 | 0.00 | 0.00 | 27 | 1013.6 |
| 20260506203643 | 74 | 157 | 1.0 | 2.0 | 0.00 | 0.00 | 0.00 | 28 | 1013.9 |
| 20260506203139 | 75 | 256 | 4.0 | 6.0 | 0.00 | 0.00 | 0.00 | 28 | 1013.8 |
| 20260506202638 | 74 | 245 | 6.0 | 7.0 | 0.00 | 0.00 | 0.00 | 29 | 1013.8 |
| 20260506202133 | 75 | 227 | 3.0 | 3.0 | 0.00 | 0.00 | 0.00 | 28 | 1013.8 |
| 20260506201630 | 75 | 233 | 1.0 | 2.0 | 0.00 | 0.00 | 0.00 | 28 | 1013.9 |
| 20260506201127 | 76 | 203 | 3.0 | 3.0 | 0.00 | 0.00 | 0.00 | 28 | 1014.0 |
| 20260506200623 | 75 | 242 | 5.0 | 6.0 | 0.00 | 0.00 | 0.00 | 28 | 1014.1 |
| 20260506200120 | 73 | 239 | 6.0 | 7.0 | 0.00 | 0.00 | 0.00 | 30 | 1014.1 |
| 20260506195617 | 74 | 179 | 4.0 | 6.0 | 0.00 | 0.00 | 0.00 | 30 | 1014.2 |
| 20260506195113 | 74 | 148 | 4.0 | 5.0 | 0.00 | 0.00 | 0.00 | 29 | 1014.0 |
| 20260506194611 | 75 | 172 | 2.0 | 2.0 | 0.00 | 0.00 | 0.00 | 30 | 1014.4 |
| 20260506194107 | 76 | 174 | 1.0 | 2.0 | 0.00 | 0.00 | 0.00 | 29 | 1014.2 |
| 20260506193605 | 74 | 39 | 2.0 | 2.0 | 0.00 | 0.00 | 0.00 | 29 | 1014.4 |
| 20260506193102 | 73 | 178 | 0.0 | 0.0 | 0.00 | 0.00 | 0.00 | 31 | 1014.5 |
| 20260506192559 | 72 | 237 | 3.0 | 3.0 | 0.00 | 0.00 | 0.00 | 31 | 1014.5 |
| 20260506192055 | 73 | 222 | 3.0 | 5.0 | 0.00 | 0.00 | 0.00 | 31 | 1014.6 |
| 20260506191551 | 73 | 249 | 5.0 | 5.0 | 0.00 | 0.00 | 0.00 | 31 | 1014.5 |
| 20260506191047 | 72 | 304 | 2.0 | 2.0 | 0.00 | 0.00 | 0.00 | 32 | 1014.7 |
| 20260506190545 | 73 | 311 | 7.0 | 9.0 | 0.00 | 0.00 | 0.00 | 31 | 1014.7 |
| 20260506190042 | 71 | 111 | 5.0 | 6.0 | 0.00 | 0.00 | 0.00 | 33 | 1014.7 |
| 20260506185539 | 73 | 265 | 8.0 | 9.0 | 0.00 | 0.00 | 0.00 | 31 | 1014.8 |
| 20260506185035 | 72 | 20 | 2.0 | 3.0 | 0.00 | 0.00 | 0.00 | 32 | 1014.9 |
| 20260506184533 | 72 | 46 | 4.0 | 6.0 | 0.00 | 0.00 | 0.00 | 31 | 1014.8 |
| 20260506184030 | 72 | 286 | 5.0 | 7.0 | 0.00 | 0.00 | 0.00 | 32 | 1014.9 |
| 20260506183525 | 72 | 16 | 5.0 | 6.0 | 0.00 | 0.00 | 0.00 | 32 | 1015.1 |
| 20260506183023 | 72 | 220 | 3.0 | 5.0 | 0.00 | 0.00 | 0.00 | 33 | 1014.9 |
| 20260506182520 | 71 | 142 | 0.0 | 0.0 | 0.00 | 0.00 | 0.00 | 33 | 1015.1 |
| 20260506182017 | 71 | 16 | 1.0 | 2.0 | 0.00 | 0.00 | 0.00 | 33 | 1015.3 |
| 20260506181515 | 72 | 161 | 3.0 | 3.0 | 0.00 | 0.00 | 0.00 | 33 | 1015.3 |
| 20260506181012 | 72 | 182 | 0.0 | 1.0 | 0.00 | 0.00 | 0.00 | 32 | 1015.4 |
| 20260506180508 | 72 | 185 | 0.0 | 0.0 | 0.00 | 0.00 | 0.00 | 31 | 1015.2 |
| 20260506180005 | 70 | 93 | 1.0 | 2.0 | 0.00 | 0.00 | 0.00 | 32 | 1015.5 |
| 20260506175501 | 71 | 160 | 3.0 | 5.0 | 0.00 | 0.00 | 0.00 | 32 | 1015.2 |
| 20260506174958 | 70 | 164 | 0.0 | 0.0 | 0.00 | 0.00 | 0.00 | 34 | 1015.4 |
| 20260506174456 | 69 | 280 | 6.0 | 6.0 | 0.00 | 0.00 | 0.00 | 34 | 1015.4 |
| 20260506173952 | 68 | 221 | 4.0 | 5.0 | 0.00 | 0.00 | 0.00 | 36 | 1015.5 |
| 20260506173450 | 69 | 163 | 3.0 | 3.0 | 0.00 | 0.00 | 0.00 | 35 | 1015.6 |
| 20260506172946 | 68 | 15 | 4.0 | 6.0 | 0.00 | 0.00 | 0.00 | 37 | 1015.2 |
| 20260506172444 | 69 | 298 | 3.0 | 5.0 | 0.00 | 0.00 | 0.00 | 38 | 1015.3 |
| 20260506171940 | 68 | 6 | 2.0 | 2.0 | 0.00 | 0.00 | 0.00 | 40 | 1015.4 |
| 20260506171438 | 68 | 356 | 3.0 | 3.0 | 0.00 | 0.00 | 0.00 | 40 | 1015.3 |
| 20260506170936 | 69 | 134 | 0.0 | 0.0 | 0.00 | 0.00 | 0.00 | 38 | 1015.6 |
| 20260506170432 | 68 | 176 | 1.0 | 1.0 | 0.00 | 0.00 | 0.00 | 39 | 1015.3 |
| 20260506165930 | 68 | 159 | 2.0 | 2.0 | 0.00 | 0.00 | 0.00 | 40 | 1015.3 |
| 20260506165428 | 67 | 177 | 0.0 | 1.0 | 0.00 | 0.00 | 0.00 | 42 | 1015.4 |
| 20260506164918 | 66 | 279 | 2.0 | 3.0 | 0.00 | 0.00 | 0.00 | 43 | 1015.7 |
| 20260506164415 | 66 | 245 | 3.0 | 3.0 | 0.00 | 0.00 | 0.00 | 44 | 1015.6 |
| 20260506163913 | 65 | 257 | 3.0 | 5.0 | 0.00 | 0.00 | 0.00 | 45 | 1015.4 |
| 20260506163407 | 67 | 233 | 6.0 | 6.0 | 0.00 | 0.00 | 0.00 | 44 | 1015.3 |
| 20260506162902 | 67 | 221 | 1.0 | 2.0 | 0.00 | 0.00 | 0.00 | 43 | 1015.4 |
| 20260506162400 | 66 | 117 | 3.0 | 3.0 | 0.00 | 0.00 | 0.00 | 43 | 1015.3 |
| 20260506161852 | 66 | 98 | 2.0 | 3.0 | 0.00 | 0.00 | 0.00 | 44 | 1015.2 |
| 20260506161349 | 64 | 208 | 1.0 | 1.0 | 0.00 | 0.00 | 0.00 | 46 | 1015.3 |
| 20260506160847 | 65 | 332 | 4.0 | 5.0 | 0.00 | 0.00 | 0.00 | 46 | 1015.4 |
| 20260506160344 | 64 | 191 | 3.0 | 3.0 | 0.00 | 0.00 | 0.00 | 47 | 1015.5 |
| 20260506155842 | 65 | 295 | 4.0 | 5.0 | 0.00 | 0.00 | 0.00 | 47 | 1015.2 |
| 20260506155338 | 64 | 303 | 2.0 | 2.0 | 0.00 | 0.00 | 0.00 | 48 | 1015.3 |
| 20260506153456 | 63 | 159 | 1.0 | 1.0 | 0.00 | 0.00 | 0.00 | 50 | 1015.2 |
| 20260506152954 | 62 | 287 | 2.0 | 3.0 | 0.00 | 0.00 | 0.00 | 50 | 1015.3 |
| 20260506152450 | 63 | 167 | 2.0 | 3.0 | 0.00 | 0.00 | 0.00 | 49 | 1015.5 |
| 20260506151949 | 64 | 167 | 1.0 | 2.0 | 0.00 | 0.00 | 0.00 | 48 | 1015.2 |
| 20260506151446 | 62 | 183 | 0.0 | 1.0 | 0.00 | 0.00 | 0.00 | 50 | 1015.4 |
| 20260506150943 | 62 | 190 | 2.0 | 2.0 | 0.00 | 0.00 | 0.00 | 50 | 1015.3 |
| 20260506150439 | 61 | 119 | 1.0 | 1.0 | 0.00 | 0.00 | 0.00 | 52 | 1015.2 |
| 20260506145936 | 61 | 139 | 3.0 | 3.0 | 0.00 | 0.00 | 0.00 | 51 | 1015.3 |
| 20260506145432 | 61 | 111 | 2.0 | 2.0 | 0.00 | 0.00 | 0.00 | 52 | 1015.2 |
| 20260506144930 | 60 | 190 | 2.0 | 2.0 | 0.00 | 0.00 | 0.00 | 54 | 1015.2 |
| 20260506144427 | 60 | 212 | 3.0 | 3.0 | 0.00 | 0.00 | 0.00 | 53 | 1015.2 |
| 20260506143925 | 60 | 167 | 2.0 | 2.0 | 0.00 | 0.00 | 0.00 | 55 | 1015.1 |
| 20260506143422 | 60 | 157 | 2.0 | 2.0 | 0.00 | 0.00 | 0.00 | 55 | 1015.4 |
| 20260506142920 | 59 | 136 | 3.0 | 3.0 | 0.00 | 0.00 | 0.00 | 56 | 1015.4 |